Stündliche Wetter Abramow

Heute, 23 Juni, Mittwoch

Zeit Temperatur Niederschläge Wind Luftdruck Luftfeuchtigkeit
00:00 +20°C° 0.1 mm 3 m/S 745 mmHg 93%
01:00 +20°C° 0 mm 3 m/S 745 mmHg 93%
02:00 +20°C° 0.3 mm 2 m/S 745 mmHg 93%
03:00 +21°C° 0.3 mm 2 m/S 745 mmHg 93%
04:00 +22°C° 0.3 mm 1 m/S 745 mmHg 93%
05:00 +23°C° 0 mm 1 m/S 746 mmHg 89%
06:00 +24°C° 0 mm 1 m/S 746 mmHg 86%
07:00 +25°C° 0 mm 1 m/S 746 mmHg 82%
08:00 +27°C° 0.1 mm 1 m/S 747 mmHg 77%
09:00 +28°C° 0.1 mm 1 m/S 747 mmHg 71%
10:00 +30°C° 0.1 mm 1 m/S 747 mmHg 65%
11:00 +30°C° 0.5 mm 1 m/S 747 mmHg 63%
12:00 +31°C° 0.5 mm 1 m/S 747 mmHg 61%
13:00 +31°C° 0.5 mm 2 m/S 747 mmHg 58%
14:00 +31°C° 0.4 mm 1 m/S 747 mmHg 58%
15:00 +31°C° 0.4 mm 1 m/S 747 mmHg 58%
16:00 +31°C° 0.4 mm 1 m/S 747 mmHg 59%
17:00 +30°C° 0.6 mm 1 m/S 747 mmHg 65%
18:00 +28°C° 0.6 mm 1 m/S 747 mmHg 71%
19:00 +27°C° 0.6 mm 1 m/S 747 mmHg 78%
20:00 +26°C° 0.6 mm 1 m/S 748 mmHg 82%
21:00 +25°C° 0.6 mm 1 m/S 748 mmHg 85%
22:00 +24°C° 0.6 mm 1 m/S 748 mmHg 89%
23:00 +23°C° 0.9 mm 1 m/S 748 mmHg 90%

Morgen, 24 Juni, Donnerstag

Zeit Temperatur Niederschläge Wind Luftdruck Luftfeuchtigkeit
00:00 +23°C° 0.9 mm 1 m/S 748 mmHg 92%
01:00 +21°C° 0.9 mm 2 m/S 748 mmHg 93%
02:00 +22°C° 0.2 mm 1 m/S 748 mmHg 94%
03:00 +22°C° 0.2 mm 1 m/S 748 mmHg 95%
04:00 +22°C° 0.2 mm 1 m/S 748 mmHg 96%
05:00 +23°C° 0 mm 1 m/S 747 mmHg 91%
06:00 +24°C° 0 mm 1 m/S 747 mmHg 87%
07:00 +24°C° 0 mm 0 m/S 747 mmHg 83%
08:00 +27°C° 0 mm 1 m/S 747 mmHg 77%
09:00 +29°C° 0 mm 1 m/S 748 mmHg 71%
10:00 +30°C° 0 mm 1 m/S 748 mmHg 66%
11:00 +31°C° 0 mm 2 m/S 747 mmHg 61%
12:00 +32°C° 0 mm 2 m/S 747 mmHg 57%
13:00 +34°C° 0 mm 2 m/S 747 mmHg 53%
14:00 +34°C° 0 mm 2 m/S 746 mmHg 53%
15:00 +34°C° 0 mm 2 m/S 746 mmHg 53%
16:00 +34°C° 0 mm 3 m/S 745 mmHg 53%
17:00 +30°C° 0.4 mm 4 m/S 746 mmHg 62%
18:00 +27°C° 0.4 mm 5 m/S 746 mmHg 72%
19:00 +23°C° 0.4 mm 6 m/S 746 mmHg 81%
20:00 +22°C° 0.8 mm 5 m/S 746 mmHg 83%
21:00 +21°C° 0.8 mm 3 m/S 745 mmHg 85%
22:00 +20°C° 0.8 mm 2 m/S 745 mmHg 87%
23:00 +19°C° 0.1 mm 2 m/S 745 mmHg 88%

übermorgen, 25 Juni, Freitag

Zeit Temperatur Niederschläge Wind Luftdruck Luftfeuchtigkeit
00:00 +19°C° 0.1 mm 2 m/S 745 mmHg 89%
01:00 +19°C° 0.1 mm 2 m/S 745 mmHg 90%
02:00 +19°C° 0.2 mm 2 m/S 745 mmHg 90%
03:00 +19°C° 0.2 mm 2 m/S 745 mmHg 91%
04:00 +19°C° 0.2 mm 2 m/S 745 mmHg 91%
05:00 +21°C° 0.1 mm 1 m/S 745 mmHg 88%
06:00 +22°C° 0.1 mm 1 m/S 745 mmHg 85%
07:00 +23°C° 0.1 mm 1 m/S 745 mmHg 82%
08:00 +24°C° 0 mm 1 m/S 745 mmHg 77%
09:00 +25°C° 0 mm 2 m/S 745 mmHg 72%
10:00 +27°C° 0 mm 2 m/S 745 mmHg 67%
11:00 +26°C° 0 mm 3 m/S 745 mmHg 69%
12:00 +26°C° 0 mm 3 m/S 745 mmHg 70%
13:00 +26°C° 0 mm 4 m/S 745 mmHg 72%
14:00 +26°C° 0 mm 4 m/S 745 mmHg 71%
15:00 +26°C° 0 mm 4 m/S 745 mmHg 71%
16:00 +25°C° 0 mm 5 m/S 745 mmHg 70%
17:00 +23°C° 0 mm 4 m/S 745 mmHg 74%
18:00 +22°C° 0 mm 4 m/S 745 mmHg 77%
19:00 +21°C° 0 mm 4 m/S 746 mmHg 80%
20:00 +20°C° 0 mm 3 m/S 746 mmHg 82%
21:00 +18°C° 0 mm 3 m/S 746 mmHg 85%
22:00 +17°C° 0 mm 2 m/S 747 mmHg 87%
23:00 +17°C° 0 mm 2 m/S 747 mmHg 89%

26 Juni, Samstag

Zeit Temperatur Niederschläge Wind Luftdruck Luftfeuchtigkeit
00:00 +16°C° 0 mm 3 m/S 747 mmHg 91%
01:00 +16°C° 0 mm 3 m/S 747 mmHg 93%
02:00 +14°C° 0 mm 3 m/S 747 mmHg 94%
03:00 +14°C° 0 mm 3 m/S 747 mmHg 95%
04:00 +14°C° 0 mm 3 m/S 747 mmHg 96%
05:00 +16°C° 0 mm 3 m/S 747 mmHg 91%
06:00 +18°C° 0 mm 4 m/S 748 mmHg 86%
07:00 +19°C° 0 mm 4 m/S 748 mmHg 81%
08:00 +20°C° 0.1 mm 4 m/S 748 mmHg 77%
09:00 +21°C° 0.1 mm 4 m/S 749 mmHg 73%
10:00 +21°C° 0.1 mm 4 m/S 749 mmHg 69%
11:00 +22°C° 0.1 mm 3 m/S 749 mmHg 64%
12:00 +24°C° 0.1 mm 3 m/S 749 mmHg 59%
13:00 +25°C° 0.1 mm 3 m/S 749 mmHg 55%
14:00 +25°C° 0 mm 3 m/S 749 mmHg 54%
15:00 +25°C° 0 mm 3 m/S 749 mmHg 54%
16:00 +25°C° 0 mm 3 m/S 748 mmHg 54%
17:00 +24°C° 0 mm 3 m/S 748 mmHg 60%
18:00 +22°C° 0 mm 3 m/S 748 mmHg 66%
19:00 +21°C° 0 mm 2 m/S 748 mmHg 71%
20:00 +20°C° 0 mm 2 m/S 748 mmHg 73%
21:00 +18°C° 0 mm 2 m/S 749 mmHg 75%
22:00 +17°C° 0 mm 2 m/S 749 mmHg 77%
23:00 +17°C° 0 mm 2 m/S 749 mmHg 78%

27 Juni, Sonntag

Zeit Temperatur Niederschläge Wind Luftdruck Luftfeuchtigkeit
00:00 +16°C° 0 mm 1 m/S 749 mmHg 80%
01:00 +16°C° 0 mm 1 m/S 750 mmHg 81%
02:00 +15°C° 0 mm 1 m/S 750 mmHg 81%
03:00 +15°C° 0 mm 1 m/S 750 mmHg 80%
04:00 +15°C° 0 mm 1 m/S 749 mmHg 80%
05:00 +18°C° 0 mm 1 m/S 750 mmHg 74%
06:00 +19°C° 0 mm 1 m/S 750 mmHg 68%
07:00 +21°C° 0 mm 1 m/S 750 mmHg 62%
08:00 +21°C° 0 mm 2 m/S 750 mmHg 58%
09:00 +24°C° 0 mm 2 m/S 750 mmHg 53%
10:00 +25°C° 0 mm 2 m/S 750 mmHg 48%
11:00 +25°C° 0 mm 2 m/S 750 mmHg 46%
12:00 +26°C° 0 mm 2 m/S 750 mmHg 43%
13:00 +26°C° 0 mm 2 m/S 750 mmHg 41%
14:00 +26°C° 0 mm 2 m/S 750 mmHg 42%
15:00 +27°C° 0 mm 2 m/S 750 mmHg 42%
16:00 +27°C° 0 mm 1 m/S 750 mmHg 43%
17:00 +25°C° 0 mm 1 m/S 749 mmHg 49%
18:00 +24°C° 0 mm 1 m/S 749 mmHg 56%
19:00 +23°C° 0 mm 1 m/S 749 mmHg 62%
20:00 +21°C° 0 mm 1 m/S 749 mmHg 63%
21:00 +18°C° 0 mm 0 m/S 749 mmHg 64%
22:00 +17°C° 0 mm 0 m/S 750 mmHg 65%
23:00 +17°C° 0 mm 0 m/S 750 mmHg 66%

28 Juni, Montag

Zeit Temperatur Niederschläge Wind Luftdruck Luftfeuchtigkeit
00:00 +16°C° 0 mm 0 m/S 750 mmHg 67%
01:00 +16°C° 0 mm 0 m/S 750 mmHg 69%
02:00 +16°C° 0 mm 0 m/S 750 mmHg 70%
03:00 +18°C° 0 mm 1 m/S 750 mmHg 72%
04:00 +16°C° 0 mm 1 m/S 750 mmHg 73%
05:00 +19°C° 0 mm 1 m/S 750 mmHg 70%
06:00 +21°C° 0 mm 1 m/S 750 mmHg 66%
07:00 +22°C° 0 mm 1 m/S 750 mmHg 62%
08:00 +24°C° 0 mm 1 m/S 750 mmHg 58%
09:00 +25°C° 0 mm 1 m/S 750 mmHg 54%
10:00 +27°C° 0 mm 1 m/S 750 mmHg 50%
11:00 +26°C° 0 mm 0 m/S 750 mmHg 48%
12:00 +26°C° 0 mm 0 m/S 750 mmHg 46%
13:00 +27°C° 0 mm 0 m/S 750 mmHg 45%
14:00 +27°C° 0 mm 0 m/S 750 mmHg 45%
15:00 +27°C° 0 mm 0 m/S 750 mmHg 45%
16:00 +27°C° 0 mm 0 m/S 749 mmHg 46%
17:00 +27°C° 0 mm 1 m/S 749 mmHg 52%
18:00 +26°C° 0 mm 1 m/S 749 mmHg 58%
19:00 +25°C° 0 mm 1 m/S 749 mmHg 64%
20:00 +24°C° 0 mm 1 m/S 749 mmHg 66%
21:00 +22°C° 0 mm 1 m/S 749 mmHg 67%
22:00 +20°C° 0 mm 2 m/S 749 mmHg 69%
23:00 +20°C° 0 mm 2 m/S 749 mmHg 71%
Mehr zeigen

Wir brauchen deine Erlaubnis

Meteoprog und unser Service Anbieter werden persönliche Daten aufbewahren, so wie Cookies, Geräte Bezeichnung oder ähnliche Technologien von deinem Gerät und Prozess, so wie Persönliche Daten Inhalte und Werbungen, genauso wie social Media und den Verkehr zu analysieren.

  • Aufbewahrung und/oder Zugang zu deiner Geräte Informationen.

    Cookies, Geräte Bezeichnung oder andere Informationen, können aufbewahrt oder Zugang zu deinem Gerät erhalten, für den Grund, der oben angegeben wird.

  • Personalisierte Werbung und Inhalte, Messungen, Einblick in das Publikum und Produkt Entwicklung.

    Werbungen und Inhalte können personalisiert werden, basierend auf ein Profil. Mehr Daten können besser personalisierte Werbungen und Inhalte hinzufügen. Werbung und Inhalte können gezeigt und gemessen werden. Einblicke über das Publikum, welche die Werbung gesehen haben und den Inhalt, können abgeleitet werden. So wie Daten können genutzt werden, um es zu verbessern oder die Benutzer Erfahrung zu verbessern das System und die Software.

Wenn du “Ich stimme zu” klickst, erlaubst du uns, die Cookies zu benutzen die Geräte Bezeichnung, den Web oder ähnliche Technologien zu benutzen. Deine Settings, können in deinem Gerät bei deinem Browser geändert werden.

Für den bestimmten Zweck, berechtigten Interessen beruhen darauf, mehr als auf den Inhalt. Du kannst mehr darüber in unseren Privaten und Cookie Politik lesen.